Weather in Kyruv

Russia / Komi Republic     62°06′53″N   49°40′01″E
temp.,
°C
wind,
m/s
gust,
m/s
humid.,
%
clouds,
%
prec.,
mm/h
press.,
hPa
HPBL,
m
24 june, thu
thu2400:00+19ssw22830 1.1 101724
03:00+17wsw239020 1.9 101659
06:00+20w398770 0.4 1015316
09:00+28w3547100 0.4 10141043
12:00+31wnw4836100 0.0 10132553
15:00+31wnw3737100 0.0 10121303
18:00+27nnw485292 0.0 1011364
21:00+21ese117880 0.3 101111
25 june, fri
fri2500:00+18ssw22939 1.3 101123
03:00+17wsw269285 1.7 1010107
06:00+22nw388122 0.1 1010274
09:00+28nnw34447 0.1 10101167
12:00+31wnw3635100 0.0 10102908
15:00+27w2357100 1.5 10101141
18:00+21e239258 11.6 1010108
21:00+19w22912 11.9 101032
26 june, sat
sat2600:00+16n27940 0.0 1012171
03:00+14nnw26960 0.0 1013159
06:00+16nnw248218 0.0 1013460
09:00+21n236093 0.0 10131191
12:00+25n234533 0.0 10121672
15:00+26nnw233885 0.0 10112105
18:00+25n1348100 0.0 1011395
21:00+20ne1165100 0.0 101216
27 june, sun
sun2700:00+17nne11737 0.0 101211
03:00+15n11814 0.0 101311
06:00+20n23600 0.0 1014316
09:00+24n23430 0.0 10141694
12:00+27n23332 0.0 10142284
15:00+28nne23290 0.0 10142455
18:00+26nne24350 0.0 1015529
21:00+19ne26580 0.0 101592
28 june, mon
mon2800:00+16e23660 0.0 101655
03:00+15ese23695 0.0 101751
06:00+21ese24516 0.0 1016218
09:00+26ese34345 0.0 10161340
12:00+29se342838 0.0 10141998
15:00+30sse24295 0.0 10132314
18:00+29se244099 0.0 1011459
21:00+23s2766100 0.0 1010146